Weather in Brin-Navolok

Russia / Arkhangel'skaya Oblast'     63°44′11″N   41°24′59″E
temp.,
°C
wind,
m/s
gust,
m/s
humid.,
%
clouds,
%
prec.,
mm/h
press.,
hPa
HPBL,
m
8 may, sat
sat800:00+5wsw239274 0.0 100785
03:00+4sw239172 0.0 100875
06:00+5ssw1488100 0.0 1010229
09:00+8ssw257264 0.0 1011838
12:00+11s3656100 0.1 10111561
15:00+13sse5846100 0.1 10101916
18:00+13sse51052100 0.1 10091694
21:00+11se51264100 0.2 1008568
9 may, sun
sun900:00+10sse51069100 0.1 10081063
03:00+9sse61271100 0.2 10061317
06:00+8sse31087100 2.1 10051093
09:00+8se3892100 4.8 1004920
12:00+8ssw2591100 1.1 1004473
15:00+5wnw4890100 1.3 1007545
18:00+6wnw4782100 0.2 1010946
21:00+3wnw2293100 0.2 101263
10 may, mon
mon1000:00+2wsw26934 0.0 1014120
03:00+1wsw39880 0.0 1016190
06:00+4wsw38800 0.0 1018246
09:00+9sw47565 0.0 1019869
12:00+10wsw495990 0.1 10201644
15:00+13wsw583996 0.3 10202319
18:00+12sw475021 0.0 10211854
21:00+8s3972100 0.0 1022262
11 may, tue
tue1100:00+9ssw3980100 0.0 1021762
03:00+8ssw41090100 0.1 1021607
06:00+8ssw31096100 1.0 1021500
09:00+11sw31093100 1.4 1021565
12:00+18sw51064100 0.0 10211276
15:00+20sw5115985 0.0 10211448
18:00+19sw51156100 0.0 10211358
21:00+16sw41266100 0.0 1022514
12 may, wed
wed1200:00+13sw4137847 0.0 1023447
03:00+12sw4128248 0.0 1024363
06:00+14sw4127294 0.0 1025484
09:00+19wsw485386 0.0 1025851
12:00+21sw5744100 0.0 10251430
15:00+23wsw58350 0.0 10241844
18:00+23wsw47430 0.0 10241750
21:00+17sw26670 0.0 1024119